Showing default

GNOMES-3, 52158

Orbit data source: Space-Track

GNOMES-3, 52158 is a payload satellite owned by PlanetiQ (US) in SSO that was launched on Fri, 01 Apr 2022 UTC via an FALCON 9 launch vehicle from the Air Force Eastern Test Range (AFETR). Payload-class satellites include a variety of spacecraft equipped with specific instruments for various scientific and technological missions. These include communications satellites like Starlink; space stations such as the ISS; scientific satellites like the Hubble; Earth observation satellites from companies like Planet Labs, Umbra, and HawkEye 360; GPS; miniature CubeSats for education and research; and military/defense satellites.

Loading next visibility...
Identifier
52158, 2022-033B
Orbit
SSO
Country
Flag of USUS
Related business
Manufacturer
Blue Canyon
Mission
Operational Commercial Communications
Bus & Motor
XSAT, Unknown motor
Mass
~30 kg wet, ~30 kg dry
Launch date (UTC)
2022-04-01 (4 years ago)
Launch vehicle
FALCON 9
Launch site
Air Force Eastern Test Range (AFETR)
Object type
Payload
Rocket body
Debris
Shape & HBR
Box + 2 Pan, 0.3 m
Radar Cross Section
0.162 m², Medium (>0.1 m² and < 1m²)

Expand to show TLE details & history
Last TLE update: 1 day ago

TLE from 1 day ago
0 GNOMES-3
1 52158U 22033B   25348.77445420  .00002659  00000-0  32429-3 0  9991
2 52158  97.8429  63.3405 0010674 201.1117 158.9658 14.84151740199976
Epoch: 2025-12-14T18:35Z
TLE epoch observation values (Epoch: 2025-12-14T18:35:12.842Z)
Latitude
-0.00007°
Longitude
60.85446°
Altitude
626.249 km
Speed
7.542 km/s
True Right ascension
04h 13m 21s
True Declination
0° 00' 00"
Sunlit
Object was in full shadow at epoch
Visualization orbit readout
Latitude
Unknown
Longitude
Unknown
Altitude
Unknown
Speed
Unknown
Apparent Right ascension
Unknown
Apparent Declination
Unknown
Sunlit
N/A
Visualization observer readout
Local Sidereal Time
19:03:12
Azimuth
Unknown
Elevation
Unknown
Doppler factor
Unknown
Orbital elements
Apogee altitude
620.745 km
Perigee altitude
605.82 km
Semi-major axis
6,991.419 km
Eccentricity
0.00107
Inclination
97.8429°
RAAN
63.3405°
Arg. of periapsis
201.1117°
True anomaly
159.00965°
Mean anomaly
158.9658°
Eccentric anomaly
158.98773°
Mean motion
3.71275 °/min
Orbital period
96.96 mins
BSTAR
0.00032429
Loading maneuver chart data...
Computing Atmospheric mass density...
Loading historical data...
Loading historical data...
Loading historical data...
Loading historical data...
Loading historical data...
Loading historical data...
Loading historical data...

Documentation

Showing up to 5 results
|